"Pseudo-MPEC" for C372CJ2

Created 2020 Sep 19 21:07:09 UT using Find_Orb

Click here for an explanation of pseudo-MPECs

 
 Astrometry: 
     C372CJ2  C2020 09 16.48147 07 43 43.00 +52 11 34.5    ~9GCM 21.2 GVNEOCPG96
     C372CJ2  C2020 09 16.48540 07 43 44.44 +52 11 37.7    ~9GCM 21.3 GVNEOCPG96
     C372CJ2  C2020 09 16.48933 07 43 45.85 +52 11 40.6    ~9GCM 20.9 GVNEOCPG96
     C372CJ2  C2020 09 16.49326 07 43 47.33 +52 11 43.5    ~9GCM 21.3 GVNEOCPG96
     C372CJ2  C2020 09 16.50884 07 43 53.05 +52 11 55.9    ~9GCq 20.9 GVNEOCPG96
     C372CJ2  C2020 09 16.51000 07 43 53.54 +52 11 56.6    ~9GCq 21.7 GVNEOCPG96
     C372CJ2 KC2020 09 17C7dWJUZ4bD\[rX33Astrometry1O=H6By4lredacted;OXIPJqMa711
     C372CJ2  C2020 09 17.48869 07 49 54.94 +52 23 42.1    ~9HC7 21.5 GVNEOCPG96
     C372CJ2  C2020 09 17.48944 07 49 55.24 +52 23 42.2    ~9HC7 21.8 GVNEOCPG96
     C372CJ2  C2020 09 17.49020 07 49 55.55 +52 23 42.8    ~9HC7 21.4 GVNEOCPG96
     C372CJ2 KC2020 09 17[^2jR\45:G%clickP@'here@b//0gX:7OAS1%eUxfore.nv)w`vM711
     C372CJ2 KC2020 09 17#HB*WQnDcb59)h$b-explanationY`MAUOq8EnxAvXEDU)U`wSJ_711

Station data:
(711) McDonald Observatory, Fort Davis  (N30.671481 W104.021500)  US/Texas.
   0.76-m f/3.0 reflector.
(G96) Mt. Lemmon Survey  (N32.442754 W110.788720)  US/Arizona.  Observers T.
   A. Pruyne, B. M. Africano, E. J. Christensen, G. A. Farneth, D. C. Fuls,
   A. R. Gibbs, A. D. Grauer, H. Gröller, J. A. Johnson, R. A. Kowalski, S.
   M. Larson, G. J. Leonard, D. Rankin, R. L. Seaman, F. C. Shelly. 1.5-m
   reflector + 10K CCD.

Orbital elements:  C372CJ2
   Perihelion 2020 May 13.662521 +/- 80.2 TT = 15:54:01 (JD 2458983.162521)
Epoch 2020 Sep 17.0 TT = JDT 2459109.5   Earth MOID: 0.0548   AutoNEOCP
M 134.76771386 +/- 110              (J2000 ecliptic)
n   1.06672789 +/- 0.544            Peri.  268.61317 +/- 110
a   0.94863748 +/- 0.331            Node   346.05838 +/- 15
e   0.1044945 +/- 0.199             Incl.   29.08339 +/- 6
P   0.92/337.47d           H 19.9   G  0.15   U 12.3  SR
q 0.84951002 +/- 0.313    Q 1.04776493 +/- 3.72
From 12 observations 2020 Sept. 16-17 (24.3 hr); mean residual 0".30
Residuals in arcseconds: 
200916 G96  .33-  .26+    200916 G96  .30+  .14-    200917 G96  .02+  .05-    
200916 G96  .28-  .32+    200916 G96  .92+  .36-    200917 G96  .32+  .00     
200916 G96  .51-  .08+    200917 711  .01+  .19-    200917 711  .07+  .08-    
200916 G96  .08-  .16-    200917 G96  .21-  .39+    200917 711  .23-  .05-    

Ephemerides (geocentric):
Date (UTC) HH   RA              Dec         delta   r     elong  mag " sig PA
---- -- -- --  -------------   -----------  ------ ------ -----  --- ---- ---
2020 09 19 21  08 04 38.693   +52 47 27.03  .76648 1.0263  69.3 21.7  139 164
2020 09 19 22  08 04 54.162   +52 47 48.23  .76656 1.0263  69.4 21.7  143 164
2020 09 19 23  08 05 09.630   +52 48 09.31  .76663 1.0264  69.4 21.7  147 164
2020 09 20 00  08 05 25.099   +52 48 30.27  .76670 1.0264  69.4 21.7  152 164
2020 09 20 01  08 05 40.569   +52 48 51.10  .76678 1.0264  69.4 21.7  156 164
2020 09 20 02  08 05 56.038   +52 49 11.80  .76685 1.0265  69.4 21.7  160 164
2020 09 20 03  08 06 11.508   +52 49 32.38  .76693 1.0265  69.4 21.7  165 164
2020 09 20 04  08 06 26.977   +52 49 52.83  .76700 1.0266  69.4 21.7  169 164
2020 09 20 05  08 06 42.447   +52 50 13.16  .76708 1.0266  69.4 21.7  174 164
2020 09 20 06  08 06 57.917   +52 50 33.36  .76715 1.0267  69.4 21.7  178 164
2020 09 20 07  08 07 13.387   +52 50 53.43  .76723 1.0267  69.4 21.7  183 164
2020 09 20 08  08 07 28.858   +52 51 13.38  .76730 1.0268  69.4 21.7  188 164
2020 09 20 09  08 07 44.328   +52 51 33.20  .76738 1.0268  69.4 21.7  192 164
2020 09 20 10  08 07 59.798   +52 51 52.90  .76745 1.0268  69.4 21.7  197 164
2020 09 20 11  08 08 15.268   +52 52 12.47  .76752 1.0269  69.4 21.7  202 164
2020 09 20 12  08 08 30.738   +52 52 31.92  .76760 1.0269  69.4 21.7  207 164
2020 09 20 13  08 08 46.208   +52 52 51.24  .76767 1.0270  69.4 21.7  212 165
2020 09 20 14  08 09 01.678   +52 53 10.43  .76775 1.0270  69.4 21.7  217 165
2020 09 20 15  08 09 17.148   +52 53 29.50  .76782 1.0271  69.4 21.7  222 165
2020 09 20 16  08 09 32.618   +52 53 48.45  .76790 1.0271  69.4 21.7  227 165
2020 09 20 17  08 09 48.087   +52 54 07.27  .76797 1.0271  69.4 21.7  232 165
2020 09 20 18  08 10 03.557   +52 54 25.96  .76805 1.0272  69.4 21.7  238 165
2020 09 20 19  08 10 19.026   +52 54 44.53  .76812 1.0272  69.4 21.7  243 165
2020 09 20 20  08 10 34.495   +52 55 02.98  .76819 1.0273  69.4 21.7  248 165
2020 09 20 21  08 10 49.963   +52 55 21.29  .76827 1.0273  69.4 21.7  254 165
2020 09 20 22  08 11 05.432   +52 55 39.49  .76834 1.0274  69.4 21.7  259 165
2020 09 20 23  08 11 20.900   +52 55 57.56  .76842 1.0274  69.4 21.7  265 165
2020 09 21 00  08 11 36.367   +52 56 15.50  .76849 1.0275  69.4 21.7  271 165
2020 09 21 01  08 11 51.835   +52 56 33.32  .76857 1.0275  69.4 21.7  276 165
2020 09 21 02  08 12 07.302   +52 56 51.01  .76864 1.0275  69.4 21.7  282 165
2020 09 21 03  08 12 22.768   +52 57 08.58  .76871 1.0276  69.4 21.7  288 165
2020 09 21 04  08 12 38.234   +52 57 26.03  .76879 1.0276  69.4 21.7  294 165
2020 09 21 05  08 12 53.700   +52 57 43.35  .76886 1.0277  69.4 21.7  300 165
2020 09 21 06  08 13 09.165   +52 58 00.54  .76894 1.0277  69.4 21.7  305 165
2020 09 21 07  08 13 24.630   +52 58 17.61  .76901 1.0278  69.4 21.7  311 166
2020 09 21 08  08 13 40.094   +52 58 34.56  .76908 1.0278  69.4 21.7  318 166
2020 09 21 09  08 13 55.558   +52 58 51.38  .76916 1.0278  69.4 21.7  324 166
2020 09 21 10  08 14 11.021   +52 59 08.08  .76923 1.0279  69.4 21.7  330 166
2020 09 21 11  08 14 26.483   +52 59 24.65  .76931 1.0279  69.4 21.7  336 166
2020 09 21 12  08 14 41.945   +52 59 41.10  .76938 1.0280  69.4 21.7  342 166
2020 09 21 13  08 14 57.406   +52 59 57.42  .76946 1.0280  69.4 21.7  349 166
2020 09 21 14  08 15 12.866   +53 00 13.62  .76953 1.0280  69.4 21.7  355 166
2020 09 21 15  08 15 28.326   +53 00 29.69  .76960 1.0281  69.4 21.7  362 166
2020 09 21 16  08 15 43.785   +53 00 45.64  .76968 1.0281  69.4 21.7  368 166
2020 09 21 17  08 15 59.243   +53 01 01.47  .76975 1.0282  69.4 21.7  375 166
2020 09 21 18  08 16 14.701   +53 01 17.17  .76983 1.0282  69.4 21.7  381 166
2020 09 21 19  08 16 30.157   +53 01 32.75  .76990 1.0283  69.4 21.7  388 166
2020 09 21 20  08 16 45.613   +53 01 48.21  .76997 1.0283  69.4 21.7  395 166